START_TIME,STEP,MOV.,P11,t_acc.,P23,t_acc.,P27,t_acc.,A4,t_acc.
1981-08-24 12:00:24.150 ,5,0,0.,4.8,0.,4.8,0.,4.8,0.,4.8
1981-08-24 12:00:28.950 ,5,0,0.,4.8,0.,4.8,0.,4.8,0.,4.8
1981-08-24 12:00:33.750 ,5,0,0.,4.8,0.,4.8,0.,4.8,0.,4.8
1981-08-24 12:00:38.550 ,5,0,0.,4.8,0.,4.8,0.,4.8,0.,4.8
1981-08-24 12:00:43.350 ,5,0,0.,4.8,0.,4.8,0.,4.8,0.,4.8
1981-08-24 12:00:48.150 ,4,0,0.,4.8,0.,4.8,0.,4.8,0.,4.8
1981-08-24 12:00:52.950 ,4,0,0.,4.8,0.,4.8,0.,4.8,0.,4.8
1981-08-24 12:00:57.750 ,4,0,0.,4.8,0.,4.8,0.,4.8,0.,4.8
1981-08-24 12:01:02.550 ,4,0,0.,4.8,0.,4.8,0.,4.8,0.,4.8
1981-08-24 12:01:07.350 ,4,0,0.,4.8,0.,4.8,0.,4.8,0.,4.8
1981-08-24 12:01:12.150 ,4,0,0.,4.8,0.,4.8,0.,4.8,0.,4.8
1981-08-24 12:01:16.950 ,4,0,0.,4.8,0.,4.8,0.,4.8,0.,4.8
1981-08-24 12:01:21.750 ,4,0,0.,4.8,0.,4.8,0.,4.8,0.,4.8
1981-08-24 12:01:26.550 ,4,0,0.,4.8,0.,4.8,0.,4.8,0.,4.8
1981-08-24 12:01:31.350 ,4,0,0.,4.8,0.,4.8,0.,4.8,0.,4.8
1981-08-24 12:01:36.150 ,3,0,0.,4.8,0.,4.8,0.,4.8,0.,4.8
1981-08-24 12:01:40.950 ,3,0,0.,4.8,0.,4.8,0.,4.8,0.,4.8
1981-08-24 12:01:45.750 ,3,0,0.,4.8,0.,4.8,0.,4.8,0.,4.8
1981-08-24 12:01:50.550 ,3,0,0.,4.8,0.,4.8,0.,4.8,0.,4.8
1981-08-24 12:01:55.350 ,3,0,0.,4.8,0.,4.8,0.,4.8,0.,4.8
1981-08-24 12:02:00.150 ,3,0,0.,4.8,0.,4.8,0.,4.8,0.,4.8
1981-08-24 12:02:04.950 ,3,0,0.,4.8,0.,4.8,0.,4.8,0.,4.8
1981-08-24 12:02:09.750 ,3,0,0.,4.8,0.,4.8,0.,4.8,0.,4.8
1981-08-24 12:02:14.550 ,3,0,0.,4.8,0.,4.8,0.,4.8,0.,4.8
1981-08-24 12:02:19.350 ,3,0,0.,4.8,0.,4.8,0.,4.8,0.,4.8
1981-08-24 12:02:24.150 ,2,0,0.,4.8,0.,4.8,0.,4.8,0.,4.8
1981-08-24 12:02:28.950 ,2,0,0.,4.8,0.,4.8,0.,4.8,0.,4.8
1981-08-24 12:02:33.750 ,2,0,0.,4.8,0.,4.8,0.,4.8,0.,4.8
1981-08-24 12:02:38.550 ,2,0,0.,4.8,0.,4.8,0.,4.8,0.,4.8
1981-08-24 12:02:43.350 ,2,0,0.,4.8,0.,4.8,0.,4.8,0.,4.8
1981-08-24 12:02:48.150 ,2,0,0.,4.8,0.,4.8,0.,4.8,0.,4.8
1981-08-24 12:02:52.950 ,2,0,0.,4.8,0.,4.8,0.,4.8,0.,4.8
1981-08-24 12:02:57.750 ,2,0,0.,4.8,0.,4.8,0.,4.8,0.,4.8
1981-08-24 12:03:02.550 ,2,0,0.,4.8,0.,4.8,0.,4.8,0.,4.8
1981-08-24 12:03:07.350 ,2,0,0.,4.8,0.,4.8,0.,4.8,0.,4.8
1981-08-24 12:03:12.150 ,1,0,0.,4.8,0.,4.8,0.,4.8,0.,4.8
1981-08-24 12:03:16.950 ,1,0,0.,4.8,0.,4.8,0.,4.8,0.,4.8
1981-08-24 12:03:21.750 ,1,0,0.,4.8,0.,4.8,0.,4.8,0.,4.8
1981-08-24 12:03:26.550 ,1,0,0.,4.8,0.,4.8,0.,4.8,0.,4.8
1981-08-24 12:03:31.350 ,1,0,0.,4.8,0.,4.8,0.,4.8,0.,4.8
1981-08-24 12:03:36.150 ,1,0,0.,4.8,0.,4.8,0.,4.8,0.,4.8
1981-08-24 12:03:40.950 ,1,0,0.,4.8,0.,4.8,0.,4.8,0.,4.8
1981-08-24 12:03:45.750 ,1,0,0.,4.8,0.,4.8,0.,4.8,0.,4.8
1981-08-24 12:03:50.550 ,1,0,0.,4.8,0.,4.8,0.,4.8,0.,4.8
1981-08-24 12:03:55.350 ,1,0,0.,4.8,0.,4.8,0.,4.8,0.,4.8
1981-08-24 12:04:00.150 ,0,0,0.,4.8,0.,4.8,0.,4.8,0.,4.8
1981-08-24 12:04:04.950 ,0,0,0.,4.8,0.,4.8,0.,4.8,0.,4.8
1981-08-24 12:04:09.750 ,0,0,0.,4.8,0.,4.8,0.,4.8,0.,4.8
1981-08-24 12:04:14.550 ,0,0,0.,4.8,0.,4.8,0.,4.8,0.,4.8
1981-08-24 12:04:19.350 ,0,0,0.,4.8,0.,4.8,0.,4.8,0.,4.8
1981-08-24 12:04:24.150 ,0,0,0.,4.8,0.,4.8,0.,4.8,0.,4.8
1981-08-24 12:04:28.950 ,0,0,0.,4.8,0.,4.8,0.,4.8,0.,4.8
1981-08-24 12:04:33.750 ,0,0,0.,4.8,0.,4.8,0.,4.8,0.,4.8
1981-08-24 12:04:38.550 ,0,0,0.,4.8,0.,4.8,0.,4.8,0.,4.8
1981-08-24 12:04:43.350 ,0,0,0.,4.8,0.,4.8,0.,4.8,0.,4.8
1981-08-24 12:04:48.150 ,0,0,0.,4.8,0.,4.8,0.,4.8,0.,4.8
1981-08-24 12:04:52.950 ,0,0,0.,4.8,0.,4.8,0.,4.8,0.,4.8
1981-08-24 12:04:57.750 ,0,0,0.,4.8,0.,4.8,0.,4.8,0.,4.8
1981-08-24 12:05:02.550 ,0,0,0.,4.8,0.,4.8,0.,4.8,0.,4.8
1981-08-24 12:05:07.350 ,0,0,0.,4.8,0.,4.8,0.,4.8,0.,4.8
1981-08-24 12:05:12.150 ,0,0,0.,4.8,0.,4.8,0.,4.8,0.,4.8
1981-08-24 12:05:16.950 ,0,0,0.,4.8,0.,4.8,0.,4.8,0.,4.8
1981-08-24 12:05:21.750 ,0,0,0.,4.8,0.,4.8,0.,4.8,0.,4.8
1981-08-24 12:05:26.550 ,0,0,0.,4.8,0.,4.8,0.,4.8,0.,4.8
1981-08-24 12:05:31.350 ,0,0,0.,4.8,0.,4.8,0.,4.8,0.,4.8
1981-08-24 12:05:36.150 ,1,0,0.,4.8,0.,4.8,0.,4.8,0.,4.8
1981-08-24 12:05:40.950 ,1,0,0.,4.8,0.,4.8,0.,4.8,0.,4.8
1981-08-24 12:05:45.750 ,1,0,0.,4.8,0.,4.8,0.,4.8,0.,4.8
1981-08-24 12:05:50.550 ,1,0,0.,4.8,0.,4.8,0.,4.8,0.,4.8
1981-08-24 12:05:55.350 ,1,0,0.,4.8,0.,4.8,0.,4.8,0.,4.8
1981-08-24 12:06:00.150 ,1,0,0.,4.8,0.,4.8,0.,4.8,0.,4.8
1981-08-24 12:06:04.950 ,1,0,0.,4.8,0.,4.8,0.,4.8,0.,4.8
1981-08-24 12:06:09.750 ,1,0,0.,4.8,0.,4.8,0.,4.8,0.,4.8
1981-08-24 12:06:14.550 ,1,0,0.,4.8,0.,4.8,0.,4.8,0.,4.8
1981-08-24 12:06:19.350 ,1,0,0.,4.8,0.,4.8,0.,4.8,0.,4.8
1981-08-24 12:06:24.150 ,2,0,0.,4.8,0.,4.8,0.,4.8,0.,4.8
1981-08-24 12:06:28.950 ,2,0,0.,4.8,0.,4.8,0.,4.8,0.,4.8
1981-08-24 12:06:33.750 ,2,0,0.,4.8,0.,4.8,0.,4.8,0.,4.8
1981-08-24 12:06:38.550 ,2,0,0.,4.8,0.,4.8,0.,4.8,0.,4.8
1981-08-24 12:06:43.350 ,2,0,0.,4.8,0.,4.8,0.,4.8,0.,4.8
1981-08-24 12:06:48.150 ,2,0,0.,4.8,0.,4.8,0.,4.8,0.,4.8
1981-08-24 12:06:52.950 ,2,0,0.,4.8,0.,4.8,0.,4.8,0.,4.8
1981-08-24 12:06:57.750 ,2,0,0.,4.8,0.,4.8,0.,4.8,0.,4.8
1981-08-24 12:07:02.550 ,2,0,0.,4.8,0.,4.8,0.,4.8,0.,4.8
1981-08-24 12:07:07.350 ,2,0,0.,4.8,0.,4.8,0.,4.8,0.,4.8
1981-08-24 12:07:12.150 ,3,0,0.,4.8,0.,4.8,0.,4.8,0.,4.8
1981-08-24 12:07:16.950 ,3,0,0.,4.8,0.,4.8,0.,4.8,0.,4.8
1981-08-24 12:07:21.750 ,3,0,0.,4.8,0.,4.8,0.,4.8,0.,4.8
1981-08-24 12:07:26.550 ,3,0,0.,4.8,0.,4.8,0.,4.8,0.,4.8
1981-08-24 12:07:31.350 ,3,0,0.,4.8,0.,4.8,0.,4.8,0.,4.8
1981-08-24 12:07:36.150 ,3,0,0.,4.8,0.,4.8,0.,4.8,0.,4.8
1981-08-24 12:07:40.950 ,3,0,0.,4.8,0.,4.8,0.,4.8,0.,4.8
1981-08-24 12:07:45.750 ,3,0,0.,4.8,0.,4.8,0.,4.8,0.,4.8
1981-08-24 12:07:50.550 ,3,0,0.,4.8,0.,4.8,0.,4.8,0.,4.8
1981-08-24 12:07:55.350 ,3,0,0.,4.8,0.,4.8,0.,4.8,0.,4.8
1981-08-24 12:08:00.150 ,4,0,0.,4.8,0.,4.8,0.,4.8,0.,4.8
1981-08-24 12:08:04.950 ,4,0,0.,4.8,0.,4.8,0.,4.8,0.,4.8
1981-08-24 12:08:09.750 ,4,0,0.,4.8,0.,4.8,0.,4.8,0.,4.8
1981-08-24 12:08:14.550 ,4,0,0.,4.8,0.,4.8,0.,4.8,0.,4.8
1981-08-24 12:08:19.350 ,4,0,0.,4.8,0.,4.8,0.,4.8,0.,4.8
1981-08-24 12:08:24.150 ,4,0,0.,4.8,0.,4.8,0.,4.8,0.,4.8
1981-08-24 12:08:28.950 ,4,0,0.,4.8,0.,4.8,0.,4.8,0.,4.8
1981-08-24 12:08:33.750 ,4,0,0.,4.8,0.,4.8,0.,4.8,0.,4.8
1981-08-24 12:08:38.550 ,4,0,0.,4.8,0.,4.8,0.,4.8,0.,4.8
1981-08-24 12:08:43.350 ,4,0,0.,4.8,0.,4.8,0.,4.8,0.,4.8
1981-08-24 12:08:48.150 ,5,0,0.,4.8,0.,4.8,0.,4.8,0.,4.8
1981-08-24 12:08:52.950 ,5,0,0.,4.8,0.,4.8,0.,4.8,0.,4.8
1981-08-24 12:08:57.750 ,5,0,0.,4.8,0.,4.8,0.,4.8,0.,4.8
1981-08-24 12:09:02.550 ,5,0,0.,4.8,0.,4.8,0.,4.8,0.,4.8
1981-08-24 12:09:07.350 ,5,0,0.,4.8,0.,4.8,0.,4.8,0.,4.8
1981-08-24 12:09:12.150 ,0,0,0.,4.8,0.,4.8,0.,4.8,0.,4.8
1981-08-24 12:09:16.950 ,0,0,0.,4.8,0.,4.8,0.,4.8,1.,4.8
1981-08-24 12:09:21.750 ,0,0,0.,4.8,0.,4.8,0.,4.8,0.,4.8
1981-08-24 12:09:26.550 ,0,0,0.,4.8,0.,4.8,0.,4.8,0.,4.8
1981-08-24 12:09:31.350 ,0,0,,0,,0,,0,,0
1981-08-24 12:09:36.150 ,6,0,0.,4.8,0.,4.8,0.,4.8,0.,4.8
1981-08-24 12:09:40.950 ,6,0,0.,4.8,0.,4.8,0.,4.8,0.,4.8
1981-08-24 12:09:45.750 ,6,0,0.,4.8,0.,4.8,0.,4.8,0.,4.8
1981-08-24 12:09:50.550 ,6,0,0.,4.8,0.,4.8,0.,4.8,0.,4.8
1981-08-24 12:09:55.350 ,6,0,0.,4.8,0.,4.8,0.,4.8,0.,4.8
1981-08-24 12:10:00.150 ,6,0,,0,,0,,0,,0
1981-08-24 12:10:04.950 ,6,0,0.,4.8,0.,4.8,0.,4.8,0.,4.8
1981-08-24 12:10:09.750 ,6,0,0.,4.8,0.,4.8,0.,4.8,0.,4.8
1981-08-24 12:10:14.550 ,6,0,0.,4.8,0.,4.8,0.,4.8,0.,4.8
1981-08-24 12:10:19.350 ,6,0,0.,4.8,0.,4.8,0.,4.8,0.,4.8
1981-08-24 12:10:24.150 ,7,0,0.,4.8,0.,4.8,0.,4.8,0.,4.8
1981-08-24 12:10:28.950 ,7,0,0.,4.8,0.,4.8,0.,4.8,0.,4.8
1981-08-24 12:10:33.750 ,7,0,0.,4.8,0.,4.8,0.,4.8,0.,4.8
1981-08-24 12:10:38.550 ,7,0,0.,4.8,0.,4.8,0.,4.8,0.,4.8
1981-08-24 12:10:43.350 ,7,0,0.,4.8,0.,4.8,0.,4.8,0.,4.8
1981-08-24 12:10:48.150 ,7,0,0.,4.8,0.,4.8,0.,4.8,0.,4.8
1981-08-24 12:10:52.950 ,7,0,0.,4.8,0.,4.8,0.,4.8,0.,4.8
1981-08-24 12:10:57.750 ,7,0,0.,4.8,0.,4.8,0.,4.8,0.,4.8
1981-08-24 12:11:02.550 ,7,0,0.,4.8,0.,4.8,0.,4.8,0.,4.8
1981-08-24 12:11:07.350 ,7,0,0.,4.8,0.,4.8,0.,4.8,0.,4.8
1981-08-24 12:11:12.150 ,7,0,0.,4.8,0.,4.8,0.,4.8,0.,4.8
1981-08-24 12:11:16.950 ,7,0,0.,4.8,0.,4.8,0.,4.8,0.,4.8
1981-08-24 12:11:21.750 ,7,0,0.,4.8,0.,4.8,0.,4.8,0.,4.8
1981-08-24 12:11:26.550 ,7,0,0.,4.8,0.,4.8,0.,4.8,0.,4.8
1981-08-24 12:11:31.350 ,7,0,0.,4.8,0.,4.8,0.,4.8,0.,4.8
1981-08-24 12:11:36.150 ,6,0,0.,4.8,0.,4.8,0.,4.8,0.,4.8
1981-08-24 12:11:40.950 ,6,0,0.,4.8,0.,4.8,0.,4.8,0.,4.8
1981-08-24 12:11:45.750 ,6,0,0.,4.8,0.,4.8,0.,4.8,0.,4.8
1981-08-24 12:11:50.550 ,6,0,0.,4.8,0.,4.8,0.,4.8,0.,4.8
1981-08-24 12:11:55.350 ,6,0,0.,4.8,0.,4.8,0.,4.8,0.,4.8
1981-08-24 12:12:00.150 ,5,0,0.,4.8,0.,4.8,0.,4.8,0.,4.8
1981-08-24 12:12:04.950 ,5,0,0.,4.8,0.,4.8,0.,4.8,0.,4.8
1981-08-24 12:12:09.750 ,5,0,0.,4.8,0.,4.8,0.,4.8,0.,4.8
1981-08-24 12:12:14.550 ,5,0,0.,4.8,0.,4.8,0.,4.8,0.,4.8
1981-08-24 12:12:19.350 ,5,0,0.,4.8,0.,4.8,0.,4.8,0.,4.8
1981-08-24 12:12:24.150 ,4,0,0.,4.8,0.,4.8,0.,4.8,0.,4.8
1981-08-24 12:12:28.950 ,4,0,0.,4.8,0.,4.8,0.,4.8,0.,4.8
1981-08-24 12:12:33.750 ,4,0,0.,4.8,0.,4.8,0.,4.8,0.,4.8
1981-08-24 12:12:38.550 ,4,0,0.,4.8,0.,4.8,0.,4.8,0.,4.8
1981-08-24 12:12:43.350 ,4,0,0.,4.8,0.,4.8,0.,4.8,0.,4.8
1981-08-24 12:12:48.150 ,0,0,0.,4.8,0.,4.8,0.,4.8,0.,4.8
1981-08-24 12:12:52.950 ,0,0,0.,4.8,0.,4.8,0.,4.8,0.,4.8
1981-08-24 12:12:57.750 ,0,0,0.,4.8,0.,4.8,0.,4.8,0.,4.8
1981-08-24 12:13:02.550 ,0,0,0.,4.8,0.,4.8,0.,4.8,0.,4.8
1981-08-24 12:13:07.350 ,0,0,0.,4.8,0.,4.8,0.,4.8,0.,4.8
1981-08-24 12:13:12.150 ,2,0,,0,,0,,0,,0
1981-08-24 12:13:16.950 ,2,0,0.,4.8,0.,4.8,0.,4.8,0.,4.8
1981-08-24 12:13:21.750 ,2,0,0.,4.8,0.,4.8,0.,4.8,0.,4.8
1981-08-24 12:13:26.550 ,2,0,0.,4.8,0.,4.8,0.,4.8,0.,4.8
1981-08-24 12:13:31.350 ,2,0,0.,4.8,0.,4.8,0.,4.8,0.,4.8
1981-08-24 12:13:36.150 ,1,0,0.,4.8,0.,4.8,0.,4.8,0.,4.8
1981-08-24 12:13:40.950 ,1,0,0.,4.8,0.,4.8,0.,4.8,0.,4.8
1981-08-24 12:13:45.750 ,1,0,0.,4.8,0.,4.8,0.,4.8,0.,4.8
1981-08-24 12:13:50.550 ,1,0,0.,4.8,0.,4.8,0.,4.8,0.,4.8
1981-08-24 12:13:55.350 ,1,0,0.,4.8,0.,4.8,0.,4.8,0.,4.8
1981-08-24 12:14:00.150 ,0,0,0.,4.8,0.,4.8,0.,4.8,0.,4.8
1981-08-24 12:14:04.950 ,0,0,0.,4.8,0.,4.8,0.,4.8,0.,4.8
1981-08-24 12:14:09.750 ,0,0,0.,4.8,0.,4.8,0.,4.8,0.,4.8
1981-08-24 12:14:14.550 ,0,0,0.,4.8,0.,4.8,0.,4.8,0.,4.8
1981-08-24 12:14:19.350 ,0,0,0.,4.8,0.,4.8,0.,4.8,0.,4.8
1981-08-24 12:14:24.150 ,0,0,0.,4.8,0.,4.8,0.,4.8,0.,4.8
1981-08-24 12:14:28.950 ,0,0,0.,4.8,0.,4.8,0.,4.8,0.,4.8
1981-08-24 12:14:33.750 ,0,0,0.,4.8,0.,4.8,0.,4.8,0.,4.8
1981-08-24 12:14:38.550 ,0,0,0.,4.8,0.,4.8,0.,4.8,0.,4.8
1981-08-24 12:14:43.350 ,0,0,0.,4.8,0.,4.8,0.,4.8,0.,4.8
1981-08-24 12:14:48.150 ,1,0,0.,4.8,0.,4.8,0.,4.8,0.,4.8
1981-08-24 12:14:52.950 ,1,0,,0,,0,,0,,0
1981-08-24 12:14:57.750 ,1,0,0.,4.8,0.,4.8,0.,4.8,0.,4.8
1981-08-24 12:15:02.550 ,1,0,0.,4.8,0.,4.8,0.,4.8,0.,4.8
1981-08-24 12:15:07.350 ,1,0,0.,4.8,0.,4.8,0.,4.8,0.,4.8
1981-08-24 12:15:12.150 ,2,0,0.,4.8,0.,4.8,0.,4.8,0.,4.8
1981-08-24 12:15:16.950 ,2,0,,0,,0,,0,,0
1981-08-24 12:15:21.750 ,2,0,0.,4.8,0.,4.8,0.,4.8,0.,4.8
1981-08-24 12:15:26.550 ,2,0,0.,4.8,0.,4.8,0.,4.8,0.,4.8
1981-08-24 12:15:31.350 ,2,0,0.,4.8,0.,4.8,0.,4.8,0.,4.8
1981-08-24 12:15:36.150 ,3,0,0.,4.8,0.,4.8,0.,4.8,0.,4.8
1981-08-24 12:15:40.950 ,3,0,0.,4.8,0.,4.8,0.,4.8,0.,4.8
1981-08-24 12:15:45.750 ,3,0,0.,4.8,0.,4.8,0.,4.8,0.,4.8
1981-08-24 12:15:50.550 ,3,0,0.,4.8,0.,4.8,0.,4.8,0.,4.8
1981-08-24 12:15:55.350 ,3,0,0.,4.8,0.,4.8,0.,4.8,0.,4.8
1981-08-24 12:16:00.150 ,4,0,0.,4.8,0.,4.8,0.,4.8,0.,4.8
1981-08-24 12:16:04.950 ,4,0,0.,4.8,0.,4.8,0.,4.8,0.,4.8
1981-08-24 12:16:09.750 ,4,0,0.,4.8,0.,4.8,0.,4.8,0.,4.8
1981-08-24 12:16:14.550 ,4,0,0.,4.8,0.,4.8,0.,4.8,0.,4.8
1981-08-24 12:16:19.350 ,4,0,0.,4.8,0.,4.8,0.,4.8,0.,4.8
1981-08-24 12:16:24.150 ,5,0,0.,4.8,0.,4.8,0.,4.8,0.,4.8
1981-08-24 12:16:28.950 ,5,0,0.,4.8,0.,4.8,0.,4.8,0.,4.8
1981-08-24 12:16:33.750 ,5,0,0.,4.8,0.,4.8,0.,4.8,0.,4.8
1981-08-24 12:16:38.550 ,5,0,0.,4.8,0.,4.8,0.,4.8,0.,4.8
1981-08-24 12:16:43.350 ,5,0,0.,4.8,0.,4.8,0.,4.8,0.,4.8
1981-08-24 12:16:48.150 ,6,0,0.,4.8,0.,4.8,0.,4.8,0.,4.8
1981-08-24 12:16:52.950 ,6,0,0.,4.8,0.,4.8,0.,4.8,0.,4.8
1981-08-24 12:16:57.750 ,6,0,0.,4.8,0.,4.8,0.,4.8,0.,4.8
1981-08-24 12:17:02.550 ,6,0,0.,4.8,0.,4.8,0.,4.8,0.,4.8
1981-08-24 12:17:07.350 ,6,0,0.,4.8,0.,4.8,0.,4.8,0.,4.8
1981-08-24 12:17:12.150 ,7,0,0.,4.8,0.,4.8,0.,4.8,0.,4.8
1981-08-24 12:17:16.950 ,7,0,0.,4.8,0.,4.8,0.,4.8,0.,4.8
1981-08-24 12:17:21.750 ,7,0,0.,4.8,0.,4.8,0.,4.8,0.,4.8
1981-08-24 12:17:26.550 ,7,0,0.,4.8,0.,4.8,0.,4.8,0.,4.8
1981-08-24 12:17:31.350 ,7,0,0.,4.8,0.,4.8,0.,4.8,0.,4.8
1981-08-24 12:17:36.150 ,7,0,0.,4.8,0.,4.8,0.,4.8,0.,4.8
1981-08-24 12:17:40.950 ,7,0,0.,4.8,0.,4.8,0.,4.8,0.,4.8
1981-08-24 12:17:45.750 ,7,0,0.,4.8,0.,4.8,0.,4.8,0.,4.8
1981-08-24 12:17:50.550 ,7,0,0.,4.8,0.,4.8,0.,4.8,0.,4.8
1981-08-24 12:17:55.350 ,7,0,0.,4.8,0.,4.8,0.,4.8,0.,4.8
1981-08-24 12:18:00.150 ,7,0,0.,4.8,0.,4.8,0.,4.8,0.,4.8
1981-08-24 12:18:04.950 ,7,0,0.,4.8,0.,4.8,0.,4.8,0.,4.8
1981-08-24 12:18:09.750 ,7,0,0.,4.8,0.,4.8,0.,4.8,0.,4.8
1981-08-24 12:18:14.550 ,7,0,0.,4.8,0.,4.8,0.,4.8,0.,4.8
1981-08-24 12:18:19.350 ,7,0,0.,4.8,0.,4.8,0.,4.8,0.,4.8
1981-08-24 12:18:24.150 ,6,0,0.,4.8,0.,4.8,0.,4.8,0.,4.8
1981-08-24 12:18:28.950 ,6,0,0.,4.8,0.,4.8,0.,4.8,0.,4.8
1981-08-24 12:18:33.750 ,6,0,0.,4.8,0.,4.8,0.,4.8,0.,4.8
1981-08-24 12:18:38.550 ,6,0,0.,4.8,0.,4.8,0.,4.8,0.,4.8
1981-08-24 12:18:43.350 ,6,0,0.,4.8,0.,4.8,0.,4.8,0.,4.8
1981-08-24 12:18:48.150 ,6,0,0.,4.8,0.,4.8,0.,4.8,0.,4.8
1981-08-24 12:18:52.950 ,6,0,0.,4.8,0.,4.8,0.,4.8,0.,4.8
1981-08-24 12:18:57.750 ,6,0,0.,4.8,0.,4.8,0.,4.8,0.,4.8
1981-08-24 12:19:02.550 ,6,0,0.,4.8,0.,4.8,0.,4.8,0.,4.8
1981-08-24 12:19:07.350 ,6,0,0.,4.8,0.,4.8,0.,4.8,0.,4.8
1981-08-24 12:19:12.150 ,5,0,0.,4.8,0.,4.8,0.,4.8,0.,4.8
1981-08-24 12:19:16.950 ,5,0,0.,4.8,0.,4.8,0.,4.8,0.,4.8
1981-08-24 12:19:21.750 ,5,0,0.,4.8,0.,4.8,0.,4.8,0.,4.8
1981-08-24 12:19:26.550 ,5,0,0.,4.8,0.,4.8,0.,4.8,0.,4.8
1981-08-24 12:19:31.350 ,5,0,0.,4.8,0.,4.8,0.,4.8,0.,4.8
1981-08-24 12:19:36.150 ,5,0,0.,4.8,0.,4.8,0.,4.8,0.,4.8
1981-08-24 12:19:40.950 ,5,0,0.,4.8,0.,4.8,0.,4.8,0.,4.8
1981-08-24 12:19:45.750 ,5,0,0.,4.8,0.,4.8,0.,4.8,0.,4.8
1981-08-24 12:19:50.550 ,5,0,0.,4.8,0.,4.8,0.,4.8,0.,4.8
1981-08-24 12:19:55.350 ,5,0,0.,4.8,0.,4.8,0.,4.8,0.,4.8
1981-08-24 12:20:00.150 ,4,0,0.,4.8,0.,4.8,0.,4.8,0.,4.8
1981-08-24 12:20:04.950 ,4,0,0.,4.8,0.,4.8,0.,4.8,0.,4.8
1981-08-24 12:20:09.750 ,4,0,0.,4.8,0.,4.8,0.,4.8,0.,4.8
1981-08-24 12:20:14.550 ,4,0,0.,4.8,0.,4.8,0.,4.8,0.,4.8
1981-08-24 12:20:19.350 ,4,0,0.,4.8,0.,4.8,0.,4.8,0.,4.8
1981-08-24 12:20:24.150 ,4,0,0.,4.8,0.,4.8,0.,4.8,0.,4.8
1981-08-24 12:20:28.950 ,4,0,0.,4.8,0.,4.8,0.,4.8,0.,4.8
1981-08-24 12:20:33.750 ,4,0,0.,4.8,0.,4.8,0.,4.8,0.,4.8
1981-08-24 12:20:38.550 ,4,0,0.,4.8,0.,4.8,0.,4.8,0.,4.8
1981-08-24 12:20:43.350 ,4,0,0.,4.8,0.,4.8,0.,4.8,0.,4.8
1981-08-24 12:20:48.150 ,3,0,0.,4.8,0.,4.8,0.,4.8,0.,4.8
1981-08-24 12:20:52.950 ,3,0,0.,4.8,0.,4.8,0.,4.8,0.,4.8
1981-08-24 12:20:57.750 ,3,0,0.,4.8,0.,4.8,0.,4.8,0.,4.8
1981-08-24 12:21:02.550 ,3,0,0.,4.8,0.,4.8,0.,4.8,0.,4.8
1981-08-24 12:21:07.350 ,3,0,0.,4.8,0.,4.8,0.,4.8,0.,4.8
1981-08-24 12:21:12.150 ,3,0,0.,4.8,0.,4.8,0.,4.8,0.,4.8
1981-08-24 12:21:16.950 ,3,0,0.,4.8,0.,4.8,0.,4.8,0.,4.8
1981-08-24 12:21:21.750 ,3,0,0.,4.8,0.,4.8,0.,4.8,0.,4.8
1981-08-24 12:21:26.550 ,3,0,0.,4.8,0.,4.8,0.,4.8,0.,4.8
1981-08-24 12:21:31.350 ,3,0,0.,4.8,0.,4.8,0.,4.8,0.,4.8
1981-08-24 12:21:36.150 ,2,0,0.,4.8,0.,4.8,0.,4.8,0.,4.8
1981-08-24 12:21:40.950 ,2,0,0.,4.8,0.,4.8,0.,4.8,0.,4.8
1981-08-24 12:21:45.750 ,2,0,0.,4.8,0.,4.8,0.,4.8,0.,4.8
1981-08-24 12:21:50.550 ,2,0,0.,4.8,0.,4.8,0.,4.8,0.,4.8
1981-08-24 12:21:55.350 ,2,0,0.,4.8,0.,4.8,0.,4.8,0.,4.8
1981-08-24 12:22:00.150 ,2,0,0.,4.8,0.,4.8,0.,4.8,0.,4.8
1981-08-24 12:22:04.950 ,2,0,0.,4.8,0.,4.8,0.,4.8,0.,4.8
1981-08-24 12:22:09.750 ,2,0,0.,4.8,0.,4.8,0.,4.8,0.,4.8
1981-08-24 12:22:14.550 ,2,0,0.,4.8,0.,4.8,0.,4.8,0.,4.8
1981-08-24 12:22:19.350 ,2,0,0.,4.8,0.,4.8,0.,4.8,0.,4.8
1981-08-24 12:22:24.150 ,1,0,0.,4.8,0.,4.8,0.,4.8,0.,4.8
1981-08-24 12:22:28.950 ,1,0,0.,4.8,0.,4.8,0.,4.8,0.,4.8
1981-08-24 12:22:33.750 ,1,0,0.,4.8,0.,4.8,0.,4.8,0.,4.8
1981-08-24 12:22:38.550 ,1,0,0.,4.8,0.,4.8,0.,4.8,0.,4.8
1981-08-24 12:22:43.350 ,1,0,0.,4.8,0.,4.8,0.,4.8,0.,4.8
1981-08-24 12:22:48.150 ,1,0,0.,4.8,0.,4.8,0.,4.8,0.,4.8
1981-08-24 12:22:52.950 ,1,0,0.,4.8,0.,4.8,0.,4.8,0.,4.8
1981-08-24 12:22:57.750 ,1,0,0.,4.8,0.,4.8,0.,4.8,0.,4.8
1981-08-24 12:23:02.550 ,1,0,0.,4.8,0.,4.8,0.,4.8,0.,4.8
1981-08-24 12:23:07.350 ,1,0,0.,4.8,0.,4.8,0.,4.8,0.,4.8
1981-08-24 12:23:12.150 ,0,0,0.,4.8,0.,4.8,0.,4.8,0.,4.8
1981-08-24 12:23:16.950 ,0,0,0.,4.8,0.,4.8,0.,4.8,0.,4.8
1981-08-24 12:23:21.750 ,0,0,0.,4.8,0.,4.8,0.,4.8,0.,4.8
1981-08-24 12:23:26.550 ,0,0,0.,4.8,0.,4.8,0.,4.8,0.,4.8
1981-08-24 12:23:31.350 ,0,0,0.,4.8,0.,4.8,0.,4.8,0.,4.8
1981-08-24 12:23:36.150 ,0,0,0.,4.8,0.,4.8,0.,4.8,0.,4.8
1981-08-24 12:23:40.950 ,0,0,0.,4.8,0.,4.8,0.,4.8,0.,4.8
1981-08-24 12:23:45.750 ,0,0,0.,4.8,0.,4.8,0.,4.8,0.,4.8
1981-08-24 12:23:50.550 ,0,0,0.,4.8,0.,4.8,0.,4.8,0.,4.8
1981-08-24 12:23:55.350 ,0,0,0.,4.8,0.,4.8,0.,4.8,0.,4.8
1981-08-24 12:24:00.150 ,0,0,0.,4.8,0.,4.8,0.,4.8,0.,4.8
1981-08-24 12:24:04.950 ,0,0,0.,4.8,0.,4.8,0.,4.8,0.,4.8
1981-08-24 12:24:09.750 ,0,0,0.,4.8,0.,4.8,0.,4.8,0.,4.8
1981-08-24 12:24:14.550 ,0,0,0.,4.8,0.,4.8,0.,4.8,0.,4.8
1981-08-24 12:24:19.350 ,0,0,0.,4.8,0.,4.8,0.,4.8,0.,4.8
1981-08-24 12:24:24.150 ,0,0,0.,4.8,0.,4.8,0.,4.8,0.,4.8
1981-08-24 12:24:28.950 ,0,0,0.,4.8,0.,4.8,0.,4.8,0.,4.8
1981-08-24 12:24:33.750 ,0,0,0.,4.8,0.,4.8,0.,4.8,0.,4.8
1981-08-24 12:24:38.550 ,0,0,0.,4.8,0.,4.8,0.,4.8,0.,4.8
1981-08-24 12:24:43.350 ,0,0,0.,4.8,0.,4.8,0.,4.8,0.,4.8
1981-08-24 12:24:48.150 ,1,0,0.,4.8,0.,4.8,0.,4.8,0.,4.8
1981-08-24 12:24:52.950 ,1,0,0.,4.8,0.,4.8,0.,4.8,0.,4.8
1981-08-24 12:24:57.750 ,1,0,0.,4.8,0.,4.8,0.,4.8,0.,4.8
1981-08-24 12:25:02.550 ,1,0,0.,4.8,0.,4.8,0.,4.8,0.,4.8
1981-08-24 12:25:07.350 ,1,0,0.,4.8,0.,4.8,0.,4.8,0.,4.8
1981-08-24 12:25:12.150 ,1,0,0.,4.8,0.,4.8,0.,4.8,0.,4.8
1981-08-24 12:25:16.950 ,1,0,0.,4.8,0.,4.8,0.,4.8,0.,4.8
1981-08-24 12:25:21.750 ,1,0,0.,4.8,0.,4.8,0.,4.8,0.,4.8
1981-08-24 12:25:26.550 ,1,0,0.,4.8,0.,4.8,0.,4.8,0.,4.8
1981-08-24 12:25:31.350 ,1,0,0.,4.8,0.,4.8,0.,4.8,0.,4.8
1981-08-24 12:25:36.150 ,2,0,0.,4.8,0.,4.8,0.,4.8,0.,4.8
1981-08-24 12:25:40.950 ,2,0,0.,4.8,0.,4.8,0.,4.8,0.,4.8
1981-08-24 12:25:45.750 ,2,0,0.,4.8,0.,4.8,0.,4.8,0.,4.8
1981-08-24 12:25:50.550 ,2,0,0.,4.8,0.,4.8,0.,4.8,0.,4.8
1981-08-24 12:25:55.350 ,2,0,0.,4.8,0.,4.8,0.,4.8,0.,4.8
1981-08-24 12:26:00.150 ,2,0,0.,4.8,0.,4.8,0.,4.8,0.,4.8
1981-08-24 12:26:04.950 ,2,0,0.,4.8,0.,4.8,0.,4.8,0.,4.8
1981-08-24 12:26:09.750 ,2,0,0.,4.8,0.,4.8,0.,4.8,0.,4.8
1981-08-24 12:26:14.550 ,2,0,0.,4.8,0.,4.8,0.,4.8,0.,4.8
1981-08-24 12:26:19.350 ,2,0,0.,4.8,0.,4.8,0.,4.8,0.,4.8
1981-08-24 12:26:24.150 ,3,0,0.,4.8,0.,4.8,0.,4.8,0.,4.8
1981-08-24 12:26:28.950 ,3,0,0.,4.8,0.,4.8,0.,4.8,0.,4.8
1981-08-24 12:26:33.750 ,3,0,0.,4.8,0.,4.8,0.,4.8,0.,4.8
1981-08-24 12:26:38.550 ,3,0,0.,4.8,0.,4.8,0.,4.8,0.,4.8
1981-08-24 12:26:43.350 ,3,0,0.,4.8,0.,4.8,0.,4.8,0.,4.8
1981-08-24 12:26:48.150 ,3,0,0.,4.8,0.,4.8,0.,4.8,0.,4.8
1981-08-24 12:26:52.950 ,3,0,0.,4.8,0.,4.8,0.,4.8,0.,4.8
1981-08-24 12:26:57.750 ,3,0,0.,4.8,0.,4.8,0.,4.8,0.,4.8
1981-08-24 12:27:02.550 ,3,0,0.,4.8,0.,4.8,0.,4.8,0.,4.8
1981-08-24 12:27:07.350 ,3,0,0.,4.8,0.,4.8,0.,4.8,0.,4.8
1981-08-24 12:27:12.150 ,4,0,0.,4.8,0.,4.8,0.,4.8,0.,4.8
1981-08-24 12:27:16.950 ,4,0,0.,4.8,0.,4.8,0.,4.8,0.,4.8
1981-08-24 12:27:21.750 ,4,0,0.,4.8,0.,4.8,0.,4.8,0.,4.8
1981-08-24 12:27:26.550 ,4,0,0.,4.8,0.,4.8,0.,4.8,0.,4.8
1981-08-24 12:27:31.350 ,4,0,0.,4.8,0.,4.8,0.,4.8,0.,4.8
1981-08-24 12:27:36.150 ,4,0,0.,4.8,0.,4.8,0.,4.8,0.,4.8
1981-08-24 12:27:40.950 ,4,0,0.,4.8,0.,4.8,0.,4.8,0.,4.8
1981-08-24 12:27:45.750 ,4,0,0.,4.8,0.,4.8,0.,4.8,0.,4.8
1981-08-24 12:27:50.550 ,4,0,0.,4.8,0.,4.8,0.,4.8,0.,4.8
1981-08-24 12:27:55.350 ,4,0,0.,4.8,0.,4.8,0.,4.8,0.,4.8
1981-08-24 12:28:00.150 ,5,0,0.,4.8,0.,4.8,0.,4.8,0.,4.8
1981-08-24 12:28:04.950 ,5,0,0.,4.8,0.,4.8,0.,4.8,0.,4.8
1981-08-24 12:28:09.750 ,5,0,0.,4.8,0.,4.8,0.,4.8,0.,4.8
1981-08-24 12:28:14.550 ,5,0,0.,4.8,0.,4.8,0.,4.8,0.,4.8
1981-08-24 12:28:19.350 ,5,0,0.,4.8,0.,4.8,0.,4.8,0.,4.8
1981-08-24 12:28:24.150 ,5,0,0.,4.8,0.,4.8,0.,4.8,0.,4.8
1981-08-24 12:28:28.950 ,5,0,0.,4.8,0.,4.8,0.,4.8,0.,4.8
1981-08-24 12:28:33.750 ,5,0,0.,4.8,0.,4.8,0.,4.8,0.,4.8
1981-08-24 12:28:38.550 ,5,0,0.,4.8,0.,4.8,0.,4.8,0.,4.8
1981-08-24 12:28:43.350 ,5,0,0.,4.8,0.,4.8,0.,4.8,0.,4.8
1981-08-24 12:28:48.150 ,6,0,0.,4.8,0.,4.8,0.,4.8,0.,4.8
1981-08-24 12:28:52.950 ,6,0,0.,4.8,0.,4.8,0.,4.8,0.,4.8
1981-08-24 12:28:57.750 ,6,0,0.,4.8,0.,4.8,0.,4.8,0.,4.8
1981-08-24 12:29:02.550 ,6,0,0.,4.8,0.,4.8,0.,4.8,0.,4.8
1981-08-24 12:29:07.350 ,6,0,0.,4.8,0.,4.8,0.,4.8,0.,4.8
1981-08-24 12:29:12.150 ,6,0,0.,4.8,0.,4.8,0.,4.8,0.,4.8
1981-08-24 12:29:16.950 ,6,0,0.,4.8,0.,4.8,0.,4.8,0.,4.8
1981-08-24 12:29:21.750 ,6,0,0.,4.8,0.,4.8,0.,4.8,0.,4.8
1981-08-24 12:29:26.550 ,6,0,0.,4.8,0.,4.8,0.,4.8,0.,4.8
1981-08-24 12:29:31.350 ,6,0,0.,4.8,0.,4.8,0.,4.8,0.,4.8
1981-08-24 12:29:36.150 ,7,0,0.,4.8,0.,4.8,0.,4.8,0.,4.8
1981-08-24 12:29:40.950 ,7,0,0.,4.8,0.,4.8,0.,4.8,0.,4.8
1981-08-24 12:29:45.750 ,7,0,0.,4.8,0.,4.8,0.,4.8,0.,4.8
1981-08-24 12:29:50.550 ,7,0,0.,4.8,0.,4.8,0.,4.8,0.,4.8
1981-08-24 12:29:55.350 ,7,0,0.,4.8,0.,4.8,0.,4.8,0.,4.8
1981-08-24 12:30:00.150 ,7,0,0.,4.8,0.,4.8,0.,4.8,0.,4.8
1981-08-24 12:30:04.950 ,7,0,0.,4.8,0.,4.8,0.,4.8,0.,4.8
1981-08-24 12:30:09.750 ,7,0,0.,4.8,0.,4.8,0.,4.8,0.,4.8
1981-08-24 12:30:14.550 ,7,0,0.,4.8,0.,4.8,0.,4.8,0.,4.8
1981-08-24 12:30:19.350 ,7,0,0.,4.8,0.,4.8,0.,4.8,0.,4.8
1981-08-24 12:30:24.150 ,7,0,0.,4.8,0.,4.8,0.,4.8,0.,4.8
1981-08-24 12:30:28.950 ,7,0,0.,4.8,0.,4.8,0.,4.8,0.,4.8
1981-08-24 12:30:33.750 ,7,0,0.,4.8,0.,4.8,0.,4.8,0.,4.8
1981-08-24 12:30:38.550 ,7,0,0.,4.8,0.,4.8,0.,4.8,0.,4.8
1981-08-24 12:30:43.350 ,7,0,0.,4.8,0.,4.8,0.,4.8,0.,4.8
1981-08-24 12:30:48.150 ,6,0,0.,4.8,0.,4.8,0.,4.8,0.,4.8
1981-08-24 12:30:52.950 ,6,0,0.,4.8,0.,4.8,0.,4.8,0.,4.8
1981-08-24 12:30:57.750 ,6,0,0.,4.8,0.,4.8,0.,4.8,0.,4.8
1981-08-24 12:31:02.550 ,6,0,0.,4.8,0.,4.8,0.,4.8,0.,4.8
1981-08-24 12:31:07.350 ,6,0,0.,4.8,0.,4.8,0.,4.8,0.,4.8
1981-08-24 12:31:12.150 ,5,0,0.,4.8,0.,4.8,0.,4.8,0.,4.8
1981-08-24 12:31:16.950 ,5,0,0.,4.8,0.,4.8,0.,4.8,0.,4.8
1981-08-24 12:31:21.750 ,5,0,0.,4.8,0.,4.8,0.,4.8,0.,4.8
1981-08-24 12:31:26.550 ,5,0,0.,4.8,0.,4.8,0.,4.8,0.,4.8
1981-08-24 12:31:31.350 ,5,0,0.,4.8,0.,4.8,0.,4.8,0.,4.8
1981-08-24 12:31:36.150 ,4,0,0.,4.8,0.,4.8,0.,4.8,0.,4.8
1981-08-24 12:31:40.950 ,4,0,0.,4.8,0.,4.8,0.,4.8,0.,4.8
1981-08-24 12:31:45.750 ,4,0,0.,4.8,0.,4.8,0.,4.8,0.,4.8
1981-08-24 12:31:50.550 ,4,0,0.,4.8,0.,4.8,0.,4.8,0.,4.8
1981-08-24 12:31:55.350 ,4,0,0.,4.8,0.,4.8,0.,4.8,0.,4.8
1981-08-24 12:32:00.150 ,3,0,0.,4.8,0.,4.8,0.,4.8,0.,4.8
1981-08-24 12:32:04.950 ,3,0,0.,4.8,0.,4.8,0.,4.8,0.,4.8
1981-08-24 12:32:09.750 ,3,0,0.,4.8,0.,4.8,0.,4.8,0.,4.8
1981-08-24 12:32:14.550 ,3,0,0.,4.8,0.,4.8,0.,4.8,0.,4.8
1981-08-24 12:32:19.350 ,3,0,0.,4.8,0.,4.8,0.,4.8,0.,4.8
1981-08-24 12:32:24.150 ,2,0,0.,4.8,0.,4.8,0.,4.8,0.,4.8
1981-08-24 12:32:28.950 ,2,0,0.,4.8,0.,4.8,0.,4.8,0.,4.8
1981-08-24 12:32:33.750 ,2,0,0.,4.8,0.,4.8,0.,4.8,0.,4.8
1981-08-24 12:32:38.550 ,2,0,0.,4.8,0.,4.8,0.,4.8,0.,4.8
1981-08-24 12:32:43.350 ,2,0,0.,4.8,0.,4.8,0.,4.8,0.,4.8
1981-08-24 12:32:48.150 ,1,0,0.,4.8,0.,4.8,0.,4.8,0.,4.8
1981-08-24 12:32:52.950 ,1,0,0.,4.8,0.,4.8,0.,4.8,0.,4.8
1981-08-24 12:32:57.750 ,1,0,0.,4.8,0.,4.8,0.,4.8,0.,4.8
1981-08-24 12:33:02.550 ,1,0,0.,4.8,0.,4.8,0.,4.8,0.,4.8
1981-08-24 12:33:07.350 ,1,0,0.,4.8,0.,4.8,0.,4.8,0.,4.8
1981-08-24 12:33:12.150 ,0,0,0.,4.8,0.,4.8,0.,4.8,0.,4.8
1981-08-24 12:33:16.950 ,0,0,0.,4.8,0.,4.8,0.,4.8,0.,4.8
1981-08-24 12:33:21.750 ,0,0,0.,4.8,0.,4.8,0.,4.8,0.,4.8
1981-08-24 12:33:26.550 ,0,0,0.,4.8,0.,4.8,0.,4.8,0.,4.8